Helicity
59 107 141 156 191 186 170 175 152 149 141 116 106 93 89 82 72 47 58 59 33 69 113 128 96 83 68 6 18 58 111 127 137 151 152 160 204 210 185 189 184 161 162
166 185 200 217 223 194 178 161 136 135 122 101 94 103 107 79 75 70 67 105 43 94 107 118 115 89 74 51 23 10 -3 -3 32 117 160 169 181 186 173 169 174 167 152
171 192 222 220 189 171 173 158 141 127 119 101 125 90 53 43 70 68 111 113 109 139 204 208 189 163 139 107 84 66 48 65 67 43 26 87 129 146 155 142 145 178 167
177 197 206 221 189 182 165 141 120 130 119 86 26 50 44 42 66 112 130 165 167 188 245 259 240 223 208 192 174 150 129 109 59 -17 -5 34 32 38 147 163 162 155 189
135 171 195 202 174 155 126 120 128 86 43 21 20 40 16 42 80 107 144 169 229 261 251 240 254 222 220 199 191 178 151 70 14 40 -1 13 32 78 95 153 210 192 168
166 160 158 157 133 146 146 127 86 43 18 19 34 35 -16 10 68 122 130 139 192 241 240 242 231 219 235 216 177 119 80 67 61 60 77 81 140 89 113 165 158 251 229
143 148 154 149 148 155 114 63 44 52 63 69 55 37 -6 29 37 101 89 111 156 159 202 214 206 187 187 201 184 169 126 92 47 64 58 72 89 71 86 112 151 170 268
163 166 157 145 113 94 77 110 103 101 87 61 71 50 83 86 111 40 38 74 142 140 166 185 190 171 135 110 125 171 174 133 94 61 51 47 33 32 69 96 121 127 145
152 167 133 113 86 119 109 133 127 102 99 86 78 115 130 128 124 83 101 86 113 130 124 152 162 151 119 121 139 128 121 106 86 60 48 47 42 44 27 58 93 120 124
163 179 195 205 157 185 142 160 136 114 107 100 123 138 154 167 144 143 117 153 179 162 142 136 107 85 97 98 64 75 62 69 61 70 67 56 31 23 38 40 55 73 76
265 275 246 255 302 291 247 196 184 169 116 137 155 170 177 183 185 175 156 138 199 151 139 138 112 110 92 99 120 91 104 107 71 66 54 47 50 52 45 38 35 49 79
383 389 352 288 225 311 292 207 161 186 178 175 188 188 215 215 175 196 188 175 183 169 166 150 131 124 114 106 114 126 147 119 120 109 90 80 72 58 55 46 41 42 48
464 378 265 336 311 299 234 151 160 186 196 172 174 183 208 207 215 211 223 234 223 212 205 181 147 128 127 134 120 147 124 108 101 88 77 61 46 35 39 47 49 45 42
426 453 464 321 180 106 152 148 128 128 147 155 149 152 171 180 202 226 235 262 242 223 198 135 108 146 131 98 109 113 97 108 100 74 54 46 37 30 37 45 49 42 34
523 294 378 499 264 148 138 150 135 131 140 111 105 124 148 164 193 221 212 216 201 267 180 108 98 91 74 72 78 95 100 79 76 76 58 53 69 64 57 55 54 53 51
413 446 415 280 195 166 122 118 115 123 115 95 127 160 153 150 152 144 151 177 176 164 176 148 83 54 42 54 63 95 90 88 75 70 85 86 73 71 70 73 69 65 57
418 323 179 166 172 138 115 129 126 118 110 100 132 145 152 171 175 169 153 155 157 146 147 103 94 61 71 67 77 96 98 105 98 75 67 74 78 84 89 99 105 101 80
308 218 213 223 183 129 93 122 111 124 114 127 145 157 151 154 150 134 144 134 122 99 100 97 97 97 85 82 96 98 96 90 86 59 61 74 70 81 95 86 66 71 66
303 286 263 214 137 94 118 129 124 123 138 142 179 181 157 144 132 141 131 113 108 108 112 120 127 122 112 95 91 94 94 80 70 40 31 37 42 72 81 89 85 73 59
367 358 270 169 143 149 118 128 141 159 176 177 182 163 138 130 133 124 124 124 116 108 109 121 123 115 107 85 101 92 67 74 78 94 101 58 65 85 63 54 44 54 50
549 370 238 133 163 171 139 146 198 200 206 182 171 156 138 118 109 112 143 116 117 104 105 105 108 101 82 72 68 73 82 75 70 109 125 119 124 113 86 53 47 44 31
567 282 136 195 137 132 98 142 226 231 203 179 174 164 145 125 137 144 136 126 107 97 95 110 117 105 84 97 84 82 84 82 51 77 99 101 117 99 106 93 42 47 33
128 145 138 96 100 118 126 169 206 231 214 188 169 172 147 157 149 142 127 111 98 89 100 122 111 99 87 79 82 73 82 99 90 68 84 26 73 86 103 73 32 21 23
80 61 58 70 115 141 136 158 209 234 213 187 178 180 145 131 135 145 121 99 84 78 85 106 123 110 109 103 94 85 90 45 51 45 77 57 89 93 93 114 47 34 22
49 72 85 93 126 139 144 182 227 248 217 180 172 157 132 125 130 124 116 82 66 66 72 77 81 65 55 53 75 87 70 18 -1 9 79 94 154 107 99 68 47 26 43
90 92 103 105 106 143 161 185 220 262 236 206 169 150 126 136 127 117 109 75 65 65 73 81 103 92 80 70 52 94 100 46 19 -24 54 46 99 83 57 64 45 74 64
Wind_Speed
18 19 21 24 26 28 29 35 40 47 50 54 58 61 60 61 63 65 62 56 46 44 39 39 43 47 45 48 50 54 57 59 58 61 63 62 61 63 65 67 68 68 66
20 21 22 24 26 26 32 36 43 46 50 53 57 58 61 64 65 67 63 60 43 40 38 42 46 48 46 49 51 54 59 60 62 64 63 64 65 67 69 70 71 71 71
18 19 20 22 23 27 32 38 42 46 51 55 57 57 61 63 65 63 62 51 42 40 41 46 51 49 51 54 56 59 63 65 68 65 64 67 70 74 76 75 74 74 73
16 15 19 23 26 29 33 36 40 46 51 50 50 56 59 57 56 60 58 55 43 38 38 48 47 51 54 57 61 65 67 71 71 72 72 75 74 76 78 78 78 77 76
16 17 21 24 26 28 31 36 42 43 45 47 49 56 52 56 51 53 54 51 49 47 45 48 55 56 57 58 63 67 71 75 77 75 77 78 80 81 82 82 83 82 81
17 18 21 23 23 27 34 38 41 43 44 47 50 55 50 45 51 52 51 51 52 52 53 55 57 56 58 62 66 71 77 80 78 83 86 82 81 83 86 86 83 84 85
18 18 19 21 24 31 36 38 42 46 49 51 52 59 52 41 47 49 54 52 53 54 57 56 56 56 61 67 72 78 80 82 82 83 83 85 86 88 87 88 88 86 88
15 14 15 20 25 31 37 43 45 50 52 51 59 61 61 58 45 64 49 57 52 55 55 55 59 62 65 68 73 76 78 79 80 82 81 81 83 86 88 90 91 91 90
10 13 17 22 28 36 41 43 46 50 55 56 52 56 65 63 68 53 66 52 54 60 56 55 60 63 65 72 73 72 75 74 76 74 73 75 80 85 90 90 92 94 94
10 16 21 27 32 37 42 44 47 51 54 62 57 52 53 57 72 80 56 63 63 62 62 60 61 66 66 70 67 70 68 72 70 69 71 75 79 85 87 90 93 93 92
16 22 24 30 34 41 45 46 52 57 59 61 59 59 57 57 58 68 82 71 67 63 61 62 67 70 72 71 67 68 71 62 65 68 72 75 79 84 88 90 92 94 95
25 28 30 34 39 48 49 52 54 59 62 61 60 56 56 61 65 69 78 79 77 70 62 62 65 65 69 67 63 71 61 62 66 70 75 80 84 88 92 93 93 94 94
27 31 35 40 45 48 50 56 60 64 65 65 63 59 55 58 61 66 70 73 78 71 67 59 58 62 62 64 63 62 65 70 74 78 83 89 94 96 95 94 94 94 94
25 31 38 48 49 50 55 61 62 62 62 64 64 62 63 63 61 60 64 67 81 74 68 63 58 55 63 61 65 71 72 77 84 89 93 94 92 92 92 91 89 89 89
28 34 44 52 56 57 63 61 60 61 65 66 66 65 63 61 58 56 57 58 63 77 83 66 62 61 67 71 76 77 81 87 89 87 87 86 83 83 82 83 82 85 86
37 47 57 56 55 59 61 61 60 63 66 66 64 61 58 56 55 55 57 56 55 61 74 60 60 66 72 77 78 80 82 83 83 81 79 81 82 80 80 82 83 85 85
47 54 51 51 56 58 57 58 59 61 61 63 59 58 59 55 56 54 54 54 55 53 67 62 59 67 74 84 83 77 75 74 70 74 76 78 80 80 79 78 78 78 81
49 47 45 49 55 61 58 60 59 57 61 64 59 58 59 54 56 56 56 54 51 50 54 68 67 72 78 78 74 75 69 67 68 70 78 78 79 79 80 79 76 78 81
43 44 46 53 59 60 59 56 56 58 57 57 54 55 57 57 60 57 52 49 48 49 54 61 69 73 72 69 72 68 65 66 65 77 82 79 77 76 75 76 80 81 81
41 44 51 55 59 62 56 55 57 57 56 53 51 54 58 59 58 54 49 46 48 52 57 63 69 71 67 66 62 64 65 65 75 72 73 69 70 71 78 80 79 81 81
46 47 52 61 65 61 56 55 55 56 53 52 52 57 58 55 49 44 43 45 49 54 61 67 70 67 69 67 63 61 62 70 71 61 64 65 67 68 71 73 74 76 75
49 55 68 64 60 59 58 53 49 51 50 52 57 58 55 48 45 43 42 43 45 54 61 66 67 68 69 62 60 59 57 63 66 53 61 73 63 69 65 63 67 71 70
60 67 61 60 64 60 56 51 48 50 50 55 55 51 48 45 43 43 41 42 47 53 58 60 65 66 66 61 54 49 48 50 54 55 55 69 68 69 65 63 63 65 64
59 62 64 66 62 64 58 55 49 50 51 49 46 47 46 48 43 38 39 43 49 55 56 51 51 53 51 48 43 41 41 50 48 47 42 60 63 63 60 57 57 56 47
63 63 61 64 65 64 60 52 45 46 48 46 44 43 45 46 38 33 37 43 50 56 49 46 49 51 56 55 50 53 51 61 62 49 40 46 58 63 50 50 38 34 52
60 61 63 65 66 62 52 45 41 42 44 41 39 39 40 38 33 30 34 42 49 51 47 49 50 52 54 54 52 45 48 55 48 45 41 63 63 51 48 45 35 40 52
Wind_Direction
71 41 18 25 31 19 16 10 6 3 360 358 357 354 355 351 349 345 345 342 344 345 347 349 349 347 348 348 346 343 338 335 332 329 325 323 322 320 318 315 311 308 307
52 43 33 20 19 24 12 7 3 1 359 357 355 355 351 348 346 343 342 341 343 343 341 340 340 340 341 341 341 340 337 335 331 327 325 322 319 317 316 313 311 307 303
52 47 41 28 26 16 8 2 0 356 352 351 351 352 350 349 349 350 349 347 348 343 344 339 336 336 334 333 333 331 330 329 326 328 324 321 315 312 310 309 308 306 304
37 31 12 5 4 2 358 359 357 352 351 353 355 354 352 353 354 354 356 358 356 350 348 346 345 340 335 331 328 326 324 324 323 318 316 316 314 311 308 306 304 302 302
17 4 1 358 4 6 3 359 354 353 353 352 353 351 353 350 354 354 354 357 356 353 344 341 336 334 332 330 328 326 323 319 317 315 312 311 309 307 306 303 300 299 298
30 30 18 12 15 7 357 354 352 352 350 349 348 347 348 352 352 350 350 349 347 345 341 338 337 336 334 331 328 324 320 318 314 311 308 307 307 305 304 301 299 297 295
43 33 25 21 14 358 354 354 350 347 345 345 344 342 344 347 346 348 341 342 341 339 337 336 336 334 331 329 326 323 319 316 313 311 308 304 303 302 301 299 296 295 293
42 44 30 7 0 356 351 349 347 343 342 344 340 339 337 335 335 338 342 337 337 338 337 335 334 331 329 328 327 325 322 317 313 310 308 304 301 301 300 297 294 292 290
56 32 9 357 348 346 343 342 342 341 338 340 340 337 334 331 330 335 332 337 335 333 333 332 332 330 329 327 325 324 323 320 315 311 309 305 302 301 298 296 293 291 287
18 359 352 351 346 345 342 342 341 339 338 335 337 335 334 331 328 326 335 330 331 331 330 329 329 329 328 328 326 325 323 318 314 310 308 305 303 300 298 295 294 291 287
350 347 347 347 348 344 342 341 339 337 334 332 332 330 329 330 329 326 324 328 328 329 328 327 329 327 328 327 325 325 322 321 316 312 308 306 304 302 299 296 293 291 287
342 345 346 344 343 343 340 339 339 337 335 333 331 329 328 328 328 326 323 322 323 328 328 326 328 329 329 328 326 323 323 321 318 313 309 306 304 302 298 295 293 290 288
339 344 342 344 340 340 338 337 338 335 334 331 331 329 328 326 327 325 323 322 322 326 326 329 330 331 333 331 329 326 322 318 314 311 309 305 302 299 295 293 291 289 286
342 345 345 336 337 339 338 335 336 336 337 335 333 331 328 326 325 326 323 323 322 325 328 330 333 337 333 331 327 321 319 316 312 309 306 303 301 298 295 292 290 289 287
345 335 338 336 332 333 332 334 333 333 333 332 330 328 328 330 332 334 333 331 328 326 326 332 333 334 330 326 322 319 316 313 311 310 308 306 303 301 298 294 292 289 287
332 329 331 330 330 331 330 330 331 332 332 332 332 334 334 334 335 333 331 331 331 328 325 331 331 330 328 324 322 319 317 315 314 313 311 306 303 301 298 295 292 289 287
326 327 325 328 328 330 331 330 330 331 333 334 333 332 332 334 334 336 335 335 334 335 328 330 331 331 328 324 322 323 322 321 321 317 312 308 305 302 300 299 297 295 290
323 323 325 328 330 329 328 328 328 330 330 330 329 330 331 333 332 333 333 334 336 337 334 330 331 330 327 328 328 327 328 327 324 320 313 311 307 305 301 299 298 296 292
327 327 328 329 329 329 328 327 327 327 328 330 331 332 333 332 330 332 334 335 337 336 335 333 331 330 331 331 330 331 331 328 327 319 313 310 307 306 304 301 296 294 292
328 328 327 328 328 328 326 325 325 325 326 329 330 332 332 330 331 332 334 336 336 336 336 334 332 331 333 334 335 335 334 333 326 325 321 321 314 307 303 299 296 294 291
330 330 331 329 327 326 325 323 323 322 324 326 328 329 331 332 335 335 337 337 336 337 337 335 333 334 333 336 337 338 336 332 328 332 329 328 322 315 308 303 299 295 293
334 331 327 325 326 325 325 323 323 323 325 325 326 328 331 335 337 337 338 339 340 339 337 336 334 333 332 337 340 339 339 336 333 343 339 326 330 318 319 315 307 301 299
328 326 326 327 325 325 326 324 323 323 324 324 325 329 334 336 335 334 336 338 339 341 340 338 335 334 335 341 344 345 345 342 337 339 344 328 325 320 322 322 317 311 306
325 327 327 326 326 325 326 324 322 323 324 328 328 329 330 332 332 333 335 336 338 340 342 345 346 346 347 349 350 349 347 343 344 347 354 337 335 329 329 329 322 323 326
328 328 329 328 326 326 326 325 326 324 324 325 328 328 329 331 332 335 336 336 338 339 347 351 352 353 350 349 351 348 347 337 338 350 1 352 347 338 345 336 339 340 328
331 332 331 330 329 329 331 328 327 326 322 322 326 329 331 335 334 335 336 337 337 340 347 351 354 356 356 355 354 355 349 341 348 352 4 343 346 356 354 351 352 339 326